Content
SEND FEEDBACK

Daily
Averages
Monthly
Summary
United States of America

DOUGLAS, GEORGIA


Home > North America > United States > Georgia
Elevation: 77 meters     Latitude: 31 29N     Longitude: 082 52W

WEATHER
 
SELECT A DAY
Number of Records: 247,563;   Date Range: 12/1/03 - 8/28/14
 
SHARE

PRINT THIS DATA

[ ← Previous Day ]
WEATHER ALMANAC - 31 JANUARY, 2013
[ Next Day → ]
[ °F ]   °C
Weather ElementAverageHighLow
Temperature8.9 °C13 °C (2:35 pm)5 °C (7:15 am)
Dewpoint0 °C8 °C (12:35 am)-5 °C (4:55 pm)
Humidity55.9 %77 % (12:35 am)30 % (4:55 pm)
Barometer1020.3 hPa1025.1 hPa (11:15 pm)1012.2 hPa (12:35 am)
Wind Speed13.8 km/h29.6 km/h (4:15 am)
Wind Gust55.5 km/h (2:15 am)
Weather ElementAverage
Visibility16.1 km
Wind DirectionWSW (239.6 °)

Weather ElementTotal
Precipitation---
Heating Degree Days9.3 (Base 18.3)
Averaged from 69 records on 31 January, 2013
WEATHER CONDITIONS BREAKOUT
WIND DIRECTION BREAKOUT
WEATHER BY HOUR - 31 JANUARY, 2013
[ °F ]   °C
Local TimeTemperatureDewpointHumidityBarometerVisibilityWind DirectionWind SpeedGust SpeedPrecipitationEventsConditions
12:35 AM12 °C8 °C77 %1012.2 hPa16.1 kmWest (280°)18.5 km/h33.3 km/hOvercast
12:55 AM12 °C8 °C77 %1012.5 hPa16.1 kmWest (270°)22.2 km/h35.2 km/hOvercast
1:15 AM12 °C8 °C77 %1012.9 hPa16.1 kmWNW (290°)16.7 km/h33.3 km/hOvercast
1:35 AM12 °C7 °C72 %1013.2 hPa16.1 kmWNW (290°)18.5 km/h33.3 km/hOvercast
1:55 AM12 °C6 °C67 %1013.5 hPa16.1 kmWNW (300°)27.8 km/h38.9 km/hOvercast
2:15 AM11 °C4 °C62 %1013.9 hPa16.1 kmWNW (300°)24.1 km/h55.5 km/hMostly Cloudy
2:35 AM11 °C2 °C54 %1014.6 hPa16.1 kmWNW (290°)20.4 km/h37 km/hScattered Clouds
2:55 AM10 °C3 °C62 %1014.9 hPa16.1 kmWNW (300°)18.5 km/h37 km/hScattered Clouds
3:15 AM9 °C2 °C62 %1015.2 hPa16.1 kmWNW (290°)20.4 km/h27.8 km/hScattered Clouds
3:35 AM9 °C2 °C62 %1015.9 hPa16.1 kmWNW (300°)16.7 km/h25.9 km/hClear
3:55 AM9 °C2 °C62 %1015.9 hPa16.1 kmWNW (300°)20.4 km/h40.7 km/hScattered Clouds
4:15 AM8 °C1 °C62 %1016.6 hPa16.1 kmWNW (300°)29.6 km/h40.7 km/hClear
4:35 AM8 °C1 °C62 %1016.6 hPa16.1 kmWNW (300°)14.8 km/h29.6 km/hClear
4:55 AM7 °C0 °C61 %1016.9 hPa16.1 kmWNW (300°)20.4 km/h27.8 km/hClear
5:15 AM7 °C0 °C61 %1016.9 hPa16.1 kmWNW (290°)18.5 km/h29.6 km/hClear
5:35 AM7 °C0 °C61 %1017.6 hPa16.1 kmWNW (300°)13 km/h29.6 km/hClear
5:55 AM7 °C0 °C61 %1017.6 hPa16.1 kmWNW (290°)14.8 km/h27.8 km/hClear
6:15 AM6 °C0 °C66 %1017.9 hPa16.1 kmWNW (290°)18.5 km/h25.9 km/hClear
6:35 AM6 °C0 °C66 %1018.3 hPa16.1 kmWNW (300°)14.8 km/hClear
7:15 AM5 °C0 °C70 %1018.6 hPa16.1 kmWest (280°)13 km/hClear
7:35 AM5 °C0 °C70 %1019 hPa16.1 kmCalmClear
7:55 AM5 °C0 °C70 %1019.3 hPa16.1 kmWest (280°)11.1 km/hClear
8:15 AM6 °C0 °C66 %1019.6 hPa16.1 kmWNW (290°)14.8 km/hClear
8:35 AM6 °C0 °C66 %1020 hPa16.1 kmWNW (290°)14.8 km/hClear
8:55 AM7 °C0 °C61 %1020.3 hPa16.1 kmWNW (300°)13 km/h25.9 km/hClear
9:15 AM7 °C0 °C61 %1020.7 hPa16.1 kmWNW (290°)18.5 km/hClear
9:35 AM7 °C0 °C61 %1021 hPa16.1 kmNW (310°)18.5 km/h27.8 km/hClear
9:55 AM8 °C0 °C57 %1021 hPa16.1 kmNW (310°)14.8 km/hClear
10:15 AM8 °C0 °C57 %1021.3 hPa16.1 kmWNW (300°)18.5 km/hClear
10:35 AM8 °C0 °C57 %1021.7 hPa16.1 kmWNW (290°)16.7 km/h27.8 km/hClear
10:55 AM9 °C0 °C54 %1021.7 hPa16.1 kmWNW (300°)14.8 km/hClear
11:15 AM9 °C0 °C54 %1021.7 hPa16.1 kmWNW (300°)13 km/h31.5 km/hClear
11:35 AM10 °C-1 °C47 %1021.7 hPa16.1 kmNW (310°)16.7 km/hClear
11:55 AM10 °C-1 °C47 %1022 hPa16.1 kmWNW (290°)18.5 km/hClear
12:15 PM10 °C0 °C50 %1021.7 hPa16.1 kmWNW (290°)13 km/h29.6 km/hClear
12:35 PM11 °C0 °C47 %1021.7 hPa16.1 kmWNW (290°)27.8 km/h33.3 km/hClear
12:55 PM11 °C-1 °C44 %1021.7 hPa16.1 kmWNW (300°)16.7 km/h29.6 km/hClear
1:15 PM11 °C-1 °C44 %1021.3 hPa16.1 kmWest (270°)24.1 km/h35.2 km/hClear
1:35 PM12 °C-2 °C38 %1021 hPa16.1 kmWNW (290°)24.1 km/h33.3 km/hClear
1:55 PM12 °C-2 °C38 %1021 hPa16.1 kmWNW (290°)22.2 km/h31.5 km/hClear
2:15 PM12 °C-2 °C38 %1021 hPa16.1 kmWest (270°)20.4 km/h31.5 km/hClear
2:35 PM13 °C-2 °C36 %1021 hPa16.1 kmWNW (290°)22.2 km/h33.3 km/hClear
2:55 PM13 °C-3 °C33 %1021.3 hPa16.1 kmWNW (300°)18.5 km/h29.6 km/hClear
3:15 PM13 °C-4 °C31 %1021 hPa16.1 kmWNW (300°)24.1 km/h37 km/hClear
3:35 PM13 °C-4 °C31 %1021.3 hPa16.1 kmNW (320°)18.5 km/h29.6 km/hClear
3:55 PM13 °C-4 °C31 %1021 hPa16.1 kmNNW (330°)16.7 km/h27.8 km/hClear
4:15 PM13 °C-4 °C31 %1021.3 hPa16.1 kmWNW (300°)20.4 km/h33.3 km/hClear
4:35 PM13 °C-4 °C31 %1021.3 hPa16.1 kmNW (310°)14.8 km/hClear
4:55 PM12 °C-5 °C30 %1021.3 hPa16.1 kmWNW (290°)14.8 km/h27.8 km/hClear
5:15 PM12 °C-4 °C33 %1021.7 hPa16.1 kmNW (310°)14.8 km/hClear
5:35 PM12 °C-3 °C35 %1021.7 hPa16.1 kmWNW (290°)11.1 km/hClear
5:55 PM11 °C-3 °C38 %1021.7 hPa16.1 kmWNW (290°)7.4 km/hClear
6:15 PM10 °C-2 °C43 %1022 hPa16.1 kmCalmClear
6:35 PM10 °C-2 °C43 %1022 hPa16.1 kmCalmClear
7:15 PM7 °C-1 °C57 %1022.4 hPa16.1 kmCalmClear
7:35 PM7 °C-1 °C57 %1022.7 hPa16.1 kmCalmClear
7:55 PM6 °C-1 °C61 %1023 hPa16.1 kmCalmClear
8:15 PM6 °C0 °C66 %1023.4 hPa16.1 kmWSW (240°)5.6 km/hClear
8:35 PM6 °C0 °C66 %1023.7 hPa16.1 kmSW (230°)5.6 km/hClear
8:55 PM5 °C0 °C70 %1023.7 hPa16.1 kmWSW (240°)7.4 km/hClear
9:15 PM6 °C0 °C66 %1024 hPa16.1 kmCalmClear
9:35 PM6 °C0 °C66 %1024.4 hPa16.1 kmCalmClear
9:55 PM6 °C1 °C70 %1024.4 hPa16.1 kmCalmClear
10:15 PM6 °C1 °C70 %1024.7 hPa16.1 kmCalmClear
10:35 PM6 °C0 °C66 %1024.7 hPa16.1 kmWest (260°)5.6 km/hClear
10:55 PM6 °C0 °C66 %1024.7 hPa16.1 kmCalmClear
11:15 PM6 °C0 °C66 %1025.1 hPa16.1 kmWest (280°)5.6 km/hClear
11:35 PM6 °C0 °C66 %1024.7 hPa16.1 kmCalmClear
11:55 PM5 °C0 °C70 %1024.4 hPa16.1 kmSW (230°)5.6 km/hClear
Hourly data recorded from KDQH, located 0 kilometers away from Douglas, Georgia







STORIES FROM OUR PARTNERS